Location: Dyersburg
(36.0438°N, 89.3789°W)
Time: 02:10:21
(UTC+00:00)

Vanguard 1 Rocket - Visible Passes

Search period start: 23 February 2020 00:00
Search period end: 04 March 2020 00:00
Orbit: 650 x 4226 km, 34.3° (Epoch: 22 February)

Date Brightness Start Highest point End Pass type
(mag) Time Alt. Az. Time Alt. Az. Time Alt. Az.
23 Feb 9.7 09:15:08 13° E 09:15:08 13° E 09:15:33 10° E visible
23 Feb 6.9 11:32:24 20° W 11:35:31 58° SSW 11:39:52 10° ESE visible
24 Feb 6.9 10:25:11 69° SSE 10:25:11 69° SSE 10:29:12 10° E visible
25 Feb 9.5 09:17:58 15° E 09:17:58 15° E 09:18:45 10° E visible
25 Feb 7.2 11:35:15 17° W 11:38:36 46° SSW 11:42:49 10° SE visible
26 Feb 11.2 02:59:14 10° S 03:01:53 12° S 03:01:53 12° S visible
26 Feb 6.9 10:28:02 66° S 10:28:02 66° S 10:32:20 10° ESE visible
27 Feb 11.3 04:09:49 10° SSW 04:12:13 14° SSW 04:12:13 14° SSW visible
27 Feb 9.3 09:20:50 18° E 09:20:50 18° E 09:21:56 10° E visible
27 Feb 7.6 11:38:07 15° W 11:41:37 35° SSW 11:45:38 10° SE visible
28 Feb 11.0 02:57:46 10° S 03:05:17 19° S 03:05:17 19° S visible
28 Feb 7.1 10:30:56 57° SSW 10:31:03 57° SSW 10:35:24 10° ESE visible
29 Feb 11.0 01:48:15 10° S 01:57:47 14° SE 01:58:25 14° SE visible
29 Feb 11.1 04:10:36 10° SSW 04:15:44 19° SSW 04:15:44 19° SSW visible
29 Feb 9.2 09:23:46 20° ESE 09:23:46 20° ESE 09:25:07 10° ESE visible
29 Feb 8.0 11:41:03 13° W 11:44:34 26° SSW 11:48:14 10° SSE visible
01 Mar 10.8 02:57:32 10° SSW 03:08:55 26° S 03:08:55 26° S visible
01 Mar 7.4 10:33:53 46° SSW 10:34:04 46° SSW 10:38:23 10° SE visible
02 Mar 10.8 01:46:05 10° S 02:00:44 21° SE 02:02:09 21° SE visible
02 Mar 10.9 04:11:49 10° SW 04:19:29 25° SSW 04:19:29 25° SSW visible
02 Mar 9.1 09:26:46 22° ESE 09:26:46 22° ESE 09:28:16 10° ESE visible
02 Mar 8.5 11:44:03 10° WSW 11:47:24 18° SW 11:50:29 10° S visible
03 Mar 11.1 00:38:25 10° SSE 00:46:59 13° SE 00:54:23 10° ESE visible
03 Mar 10.5 02:57:59 10° SSW 03:12:46 34° S 03:12:46 34° S visible
03 Mar 11.3 05:28:27 10° WSW 05:30:06 13° WSW 05:30:06 13° WSW visible
03 Mar 7.8 10:36:56 36° SSW 10:37:00 36° SSW 10:41:13 10° SE visible
